QPF
0.02 0.01 0.02 0.02 0.03 0.03 0.03 0.01 0.01 0.02 0.03 0.04 0.06 0.08 0.08 0.06 0.04 0.04 0.05 0.06 0.05 0.04 0.03 0.03 0.03 0.03 0.04 0.05 0.05 0.05 0.05 0.05 0.05 0.05 0.04 0.03 0.03 0.02 0.03 0.03 0.03 0.02 0.01
0.03 0.01 0.01 0.02 0.03 0.03 0.03 0.02 0.01 0.02 0.03 0.06 0.08 0.07 0.08 0.09 0.06 0.04 0.05 0.05 0.05 0.05 0.04 0.04 0.03 0.04 0.05 0.06 0.05 0.05 0.06 0.06 0.06 0.06 0.05 0.03 0.03 0.02 0.02 0.02 0.02 0.02 0.02
0.01 0.01 0.01 0.01 0.03 0.04 0.04 0.02 0.01 0.02 0.03 0.05 0.08 0.06 0.07 0.07 0.06 0.05 0.04 0.04 0.04 0.05 0.05 0.04 0.03 0.04 0.04 0.04 0.05 0.06 0.07 0.07 0.07 0.07 0.06 0.05 0.05 0.04 0.02 0.02 0.02 0.02 0.02
0.01 0.01 0.00 0.00 0.01 0.02 0.03 0.02 0.01 0.01 0.02 0.03 0.05 0.06 0.07 0.06 0.05 0.04 0.03 0.02 0.02 0.03 0.05 0.05 0.04 0.04 0.04 0.04 0.05 0.06 0.07 0.08 0.09 0.07 0.06 0.05 0.06 0.06 0.04 0.02 0.02 0.01 0.01
0.01 0.01 0.00 0.00 0.01 0.01 0.01 0.01 0.01 0.01 0.02 0.02 0.03 0.04 0.04 0.04 0.03 0.04 0.03 0.02 0.03 0.04 0.06 0.05 0.04 0.04 0.04 0.04 0.05 0.06 0.07 0.06 0.06 0.06 0.06 0.06 0.07 0.06 0.06 0.04 0.03 0.02 0.01
0.01 0.01 0.01 0.01 0.01 0.01 0.01 0.01 0.02 0.02 0.01 0.01 0.02 0.02 0.02 0.02 0.02 0.03 0.02 0.03 0.04 0.05 0.06 0.05 0.07 0.05 0.04 0.05 0.05 0.05 0.05 0.05 0.05 0.06 0.06 0.06 0.06 0.06 0.06 0.06 0.04 0.03 0.02
0.01 0.01 0.01 0.01 0.01 0.01 0.01 0.01 0.03 0.02 0.01 0.01 0.01 0.02 0.02 0.02 0.01 0.02 0.02 0.02 0.02 0.04 0.06 0.06 0.05 0.04 0.04 0.04 0.04 0.04 0.04 0.05 0.06 0.07 0.06 0.05 0.05 0.05 0.06 0.06 0.06 0.04 0.03
0.00 0.00 0.01 0.01 0.01 0.01 0.01 0.01 0.02 0.02 0.01 0.01 0.02 0.02 0.03 0.02 0.02 0.02 0.02 0.02 0.02 0.04 0.04 0.03 0.03 0.04 0.04 0.04 0.05 0.06 0.05 0.04 0.04 0.04 0.04 0.05 0.05 0.05 0.06 0.07 0.08 0.07 0.04
0.00 0.01 0.01 0.01 0.01 0.01 0.01 0.01 0.03 0.02 0.02 0.02 0.02 0.03 0.03 0.03 0.02 0.02 0.02 0.03 0.03 0.03 0.02 0.02 0.03 0.04 0.05 0.05 0.04 0.04 0.04 0.04 0.05 0.05 0.06 0.07 0.06 0.06 0.06 0.06 0.07 0.07 0.06
0.01 0.01 0.01 0.01 0.02 0.02 0.01 0.02 0.03 0.03 0.03 0.03 0.04 0.04 0.04 0.04 0.04 0.03 0.03 0.03 0.03 0.03 0.03 0.03 0.04 0.04 0.04 0.04 0.05 0.05 0.04 0.05 0.05 0.06 0.06 0.07 0.07 0.07 0.07 0.06 0.05 0.06 0.07
0.01 0.01 0.02 0.02 0.02 0.02 0.03 0.03 0.05 0.05 0.04 0.03 0.04 0.04 0.04 0.04 0.05 0.04 0.04 0.04 0.04 0.04 0.04 0.04 0.04 0.04 0.04 0.04 0.06 0.06 0.05 0.04 0.05 0.05 0.05 0.05 0.06 0.07 0.07 0.06 0.06 0.05 0.06
0.01 0.02 0.02 0.02 0.02 0.03 0.03 0.04 0.05 0.06 0.05 0.05 0.04 0.04 0.03 0.04 0.04 0.04 0.03 0.03 0.03 0.03 0.03 0.03 0.04 0.04 0.05 0.05 0.05 0.04 0.04 0.04 0.04 0.04 0.04 0.04 0.05 0.06 0.06 0.06 0.06 0.06 0.06
0.01 0.02 0.03 0.03 0.02 0.03 0.03 0.04 0.05 0.06 0.06 0.05 0.04 0.03 0.03 0.03 0.03 0.03 0.03 0.02 0.03 0.03 0.03 0.03 0.03 0.03 0.03 0.04 0.05 0.04 0.03 0.03 0.04 0.04 0.04 0.05 0.06 0.07 0.06 0.06 0.06 0.06 0.06
0.02 0.02 0.04 0.03 0.02 0.03 0.04 0.05 0.05 0.05 0.05 0.04 0.04 0.04 0.03 0.03 0.03 0.03 0.03 0.03 0.03 0.04 0.04 0.04 0.04 0.04 0.05 0.05 0.05 0.05 0.04 0.04 0.04 0.04 0.04 0.04 0.05 0.05 0.06 0.06 0.06 0.06 0.07
0.01 0.02 0.04 0.02 0.02 0.02 0.03 0.03 0.03 0.03 0.03 0.03 0.02 0.02 0.02 0.03 0.04 0.05 0.03 0.03 0.03 0.04 0.04 0.05 0.05 0.05 0.05 0.04 0.04 0.04 0.04 0.05 0.05 0.04 0.03 0.03 0.04 0.04 0.04 0.04 0.04 0.05 0.05
0.01 0.02 0.04 0.03 0.01 0.01 0.02 0.02 0.02 0.02 0.02 0.01 0.01 0.01 0.01 0.02 0.03 0.03 0.03 0.03 0.02 0.03 0.03 0.04 0.04 0.04 0.03 0.03 0.02 0.02 0.03 0.05 0.06 0.05 0.05 0.03 0.02 0.02 0.03 0.03 0.03 0.03 0.03
0.01 0.02 0.04 0.03 0.01 0.00 0.01 0.02 0.02 0.01 0.01 0.01 0.01 0.01 0.01 0.01 0.01 0.02 0.03 0.03 0.02 0.03 0.03 0.02 0.02 0.03 0.02 0.03 0.03 0.03 0.02 0.03 0.04 0.04 0.03 0.02 0.02 0.02 0.03 0.03 0.03 0.03 0.03
0.02 0.03 0.05 0.05 0.02 0.01 0.01 0.02 0.02 0.01 0.01 0.01 0.01 0.01 0.01 0.01 0.02 0.03 0.03 0.02 0.02 0.02 0.02 0.01 0.02 0.02 0.03 0.03 0.03 0.03 0.02 0.02 0.02 0.03 0.03 0.03 0.03 0.02 0.02 0.03 0.04 0.03 0.02
0.02 0.03 0.04 0.04 0.03 0.02 0.02 0.02 0.03 0.02 0.01 0.01 0.01 0.01 0.02 0.03 0.03 0.03 0.03 0.03 0.03 0.03 0.02 0.02 0.02 0.02 0.03 0.02 0.02 0.02 0.02 0.03 0.03 0.03 0.02 0.02 0.02 0.01 0.02 0.03 0.05 0.05 0.03
0.02 0.03 0.04 0.04 0.04 0.04 0.03 0.02 0.03 0.03 0.02 0.02 0.02 0.02 0.03 0.03 0.03 0.03 0.03 0.03 0.04 0.04 0.05 0.04 0.03 0.02 0.03 0.02 0.01 0.02 0.02 0.02 0.02 0.02 0.01 0.01 0.01 0.01 0.02 0.02 0.03 0.04 0.02
0.01 0.02 0.02 0.02 0.02 0.03 0.02 0.02 0.02 0.03 0.02 0.02 0.02 0.03 0.04 0.04 0.04 0.03 0.03 0.03 0.04 0.06 0.06 0.05 0.04 0.03 0.03 0.02 0.02 0.02 0.02 0.02 0.02 0.01 0.01 0.01 0.01 0.00 0.01 0.01 0.02 0.02 0.02
0.01 0.01 0.01 0.01 0.01 0.01 0.02 0.02 0.03 0.03 0.04 0.03 0.03 0.03 0.04 0.05 0.05 0.04 0.04 0.04 0.06 0.06 0.05 0.04 0.03 0.03 0.02 0.02 0.02 0.02 0.01 0.01 0.01 0.02 0.02 0.01 0.01 0.01 0.01 0.00 0.01 0.01 0.02
0.00 0.00 0.01 0.01 0.01 0.01 0.01 0.02 0.04 0.04 0.05 0.06 0.06 0.07 0.06 0.07 0.07 0.06 0.05 0.05 0.05 0.05 0.04 0.03 0.02 0.02 0.02 0.02 0.02 0.02 0.01 0.01 0.01 0.02 0.02 0.01 0.01 0.01 0.01 0.01 0.01 0.01 0.02
0.00 0.00 0.01 0.01 0.01 0.01 0.01 0.02 0.03 0.04 0.05 0.07 0.09 0.09 0.07 0.07 0.08 0.07 0.06 0.06 0.05 0.04 0.04 0.03 0.02 0.02 0.02 0.02 0.02 0.02 0.02 0.01 0.01 0.01 0.02 0.02 0.02 0.02 0.01 0.01 0.01 0.02 0.03
0.01 0.02 0.02 0.01 0.00 0.00 0.01 0.01 0.03 0.04 0.04 0.05 0.07 0.07 0.07 0.07 0.06 0.05 0.04 0.04 0.03 0.03 0.02 0.01 0.01 0.02 0.02 0.03 0.04 0.02 0.02 0.02 0.02 0.02 0.02 0.02 0.02 0.02 0.02 0.02 0.02 0.02 0.02
0.02 0.04 0.04 0.01 0.00 0.01 0.01 0.01 0.02 0.03 0.03 0.03 0.03 0.04 0.04 0.04 0.04 0.02 0.01 0.01 0.01 0.01 0.01 0.01 0.01 0.01 0.02 0.03 0.04 0.02 0.02 0.02 0.02 0.02 0.03 0.03 0.03 0.04 0.03 0.03 0.02 0.02 0.02
MSLP
1009.12 1009.69 1010.32 1010.98 1011.66 1012.33 1012.99 1013.62 1014.20 1014.71 1015.15 1015.50 1015.77 1015.97 1016.11 1016.23 1016.35 1016.49 1016.65 1016.85 1017.08 1017.31 1017.54 1017.74 1017.91 1018.05 1018.15 1018.23 1018.30 1018.35 1018.39 1018.42 1018.44 1018.43 1018.39 1018.33 1018.23 1018.12 1017.99 1017.87 1017.77 1017.69 1017.65
1008.39 1008.97 1009.62 1010.33 1011.06 1011.80 1012.53 1013.23 1013.88 1014.47 1014.97 1015.37 1015.68 1015.91 1016.06 1016.17 1016.26 1016.36 1016.48 1016.64 1016.82 1017.03 1017.25 1017.46 1017.65 1017.81 1017.94 1018.04 1018.12 1018.19 1018.23 1018.27 1018.29 1018.30 1018.29 1018.25 1018.20 1018.12 1018.03 1017.92 1017.82 1017.73 1017.65
1007.52 1008.11 1008.81 1009.56 1010.35 1011.16 1011.95 1012.71 1013.43 1014.07 1014.64 1015.12 1015.49 1015.77 1015.96 1016.09 1016.18 1016.26 1016.35 1016.46 1016.61 1016.79 1016.99 1017.19 1017.39 1017.56 1017.71 1017.83 1017.92 1017.99 1018.03 1018.07 1018.10 1018.11 1018.13 1018.13 1018.12 1018.10 1018.06 1018.00 1017.92 1017.83 1017.74
1006.55 1007.17 1007.92 1008.73 1009.58 1010.43 1011.28 1012.09 1012.86 1013.57 1014.20 1014.75 1015.21 1015.56 1015.83 1016.01 1016.13 1016.22 1016.29 1016.38 1016.49 1016.63 1016.80 1016.98 1017.17 1017.34 1017.49 1017.61 1017.70 1017.76 1017.80 1017.82 1017.84 1017.86 1017.89 1017.93 1017.97 1018.01 1018.03 1018.02 1017.98 1017.91 1017.81
1005.53 1006.22 1007.02 1007.90 1008.81 1009.71 1010.59 1011.43 1012.23 1012.99 1013.69 1014.32 1014.86 1015.32 1015.67 1015.94 1016.12 1016.24 1016.33 1016.41 1016.49 1016.59 1016.71 1016.86 1017.01 1017.16 1017.29 1017.40 1017.47 1017.51 1017.52 1017.52 1017.52 1017.54 1017.57 1017.63 1017.72 1017.80 1017.88 1017.93 1017.94 1017.89 1017.80
1004.57 1005.32 1006.21 1007.15 1008.11 1009.04 1009.94 1010.80 1011.62 1012.41 1013.15 1013.85 1014.49 1015.05 1015.51 1015.88 1016.15 1016.33 1016.44 1016.52 1016.57 1016.63 1016.70 1016.80 1016.90 1017.01 1017.11 1017.19 1017.23 1017.24 1017.22 1017.18 1017.15 1017.14 1017.17 1017.24 1017.34 1017.47 1017.59 1017.69 1017.75 1017.73 1017.65
1003.72 1004.57 1005.53 1006.54 1007.54 1008.50 1009.41 1010.26 1011.08 1011.87 1012.65 1013.40 1014.12 1014.77 1015.35 1015.82 1016.18 1016.43 1016.58 1016.66 1016.69 1016.71 1016.73 1016.76 1016.82 1016.88 1016.93 1016.97 1016.98 1016.95 1016.89 1016.82 1016.75 1016.71 1016.71 1016.77 1016.87 1017.02 1017.18 1017.31 1017.40 1017.42 1017.36
1003.06 1003.99 1005.04 1006.11 1007.15 1008.12 1009.01 1009.84 1010.64 1011.42 1012.21 1012.99 1013.77 1014.51 1015.18 1015.74 1016.19 1016.50 1016.69 1016.78 1016.79 1016.77 1016.74 1016.71 1016.71 1016.72 1016.73 1016.73 1016.71 1016.65 1016.55 1016.44 1016.34 1016.26 1016.23 1016.26 1016.36 1016.50 1016.67 1016.83 1016.95 1017.00 1016.97
1002.61 1003.63 1004.74 1005.86 1006.92 1007.89 1008.76 1009.56 1010.32 1011.08 1011.85 1012.65 1013.46 1014.26 1014.99 1015.63 1016.14 1016.50 1016.72 1016.82 1016.82 1016.76 1016.68 1016.60 1016.55 1016.52 1016.50 1016.47 1016.43 1016.35 1016.23 1016.10 1015.95 1015.84 1015.77 1015.77 1015.84 1015.97 1016.14 1016.31 1016.45 1016.53 1016.53
1002.35 1003.44 1004.60 1005.75 1006.82 1007.78 1008.63 1009.40 1010.12 1010.85 1011.60 1012.39 1013.21 1014.03 1014.81 1015.49 1016.04 1016.43 1016.67 1016.76 1016.74 1016.66 1016.54 1016.43 1016.34 1016.28 1016.24 1016.20 1016.15 1016.06 1015.94 1015.79 1015.63 1015.48 1015.38 1015.34 1015.38 1015.49 1015.65 1015.82 1015.97 1016.07 1016.11
1002.27 1003.39 1004.58 1005.74 1006.81 1007.75 1008.58 1009.32 1010.02 1010.71 1011.44 1012.22 1013.03 1013.85 1014.63 1015.32 1015.88 1016.28 1016.51 1016.60 1016.57 1016.46 1016.32 1016.18 1016.07 1016.00 1015.96 1015.92 1015.88 1015.80 1015.68 1015.53 1015.35 1015.19 1015.06 1014.99 1015.00 1015.08 1015.22 1015.38 1015.55 1015.68 1015.75
1002.29 1003.42 1004.60 1005.75 1006.80 1007.74 1008.55 1009.28 1009.97 1010.65 1011.36 1012.12 1012.91 1013.71 1014.48 1015.15 1015.70 1016.08 1016.30 1016.38 1016.33 1016.21 1016.05 1015.91 1015.79 1015.72 1015.68 1015.65 1015.62 1015.55 1015.44 1015.29 1015.12 1014.94 1014.79 1014.70 1014.67 1014.72 1014.84 1015.00 1015.17 1015.33 1015.45
1002.35 1003.45 1004.60 1005.72 1006.76 1007.68 1008.50 1009.24 1009.94 1010.63 1011.34 1012.09 1012.87 1013.64 1014.37 1015.00 1015.51 1015.87 1016.07 1016.12 1016.06 1015.93 1015.77 1015.62 1015.51 1015.43 1015.40 1015.38 1015.35 1015.29 1015.19 1015.05 1014.87 1014.69 1014.53 1014.41 1014.36 1014.39 1014.49 1014.64 1014.82 1015.00 1015.16
1002.39 1003.44 1004.54 1005.62 1006.63 1007.56 1008.40 1009.17 1009.91 1010.63 1011.36 1012.11 1012.87 1013.61 1014.30 1014.89 1015.35 1015.66 1015.82 1015.86 1015.78 1015.65 1015.49 1015.34 1015.23 1015.15 1015.11 1015.09 1015.06 1015.00 1014.89 1014.75 1014.57 1014.38 1014.21 1014.08 1014.02 1014.03 1014.11 1014.25 1014.43 1014.63 1014.82
1002.37 1003.36 1004.39 1005.43 1006.42 1007.36 1008.23 1009.06 1009.85 1010.63 1011.40 1012.16 1012.91 1013.62 1014.26 1014.79 1015.19 1015.46 1015.59 1015.59 1015.51 1015.37 1015.21 1015.06 1014.94 1014.86 1014.80 1014.76 1014.71 1014.63 1014.51 1014.36 1014.17 1013.98 1013.81 1013.68 1013.60 1013.59 1013.66 1013.79 1013.96 1014.17 1014.39
1002.27 1003.19 1004.16 1005.15 1006.14 1007.09 1008.01 1008.90 1009.77 1010.61 1011.42 1012.21 1012.95 1013.63 1014.21 1014.69 1015.03 1015.25 1015.34 1015.32 1015.23 1015.08 1014.92 1014.77 1014.64 1014.54 1014.45 1014.37 1014.28 1014.17 1014.03 1013.86 1013.67 1013.48 1013.32 1013.19 1013.11 1013.10 1013.16 1013.27 1013.43 1013.62 1013.84
1002.09 1002.95 1003.87 1004.83 1005.81 1006.79 1007.76 1008.72 1009.65 1010.56 1011.42 1012.22 1012.95 1013.60 1014.13 1014.54 1014.83 1014.99 1015.04 1015.01 1014.90 1014.76 1014.60 1014.44 1014.29 1014.16 1014.04 1013.92 1013.79 1013.64 1013.47 1013.28 1013.10 1012.92 1012.76 1012.65 1012.59 1012.58 1012.63 1012.72 1012.85 1013.02 1013.21
1001.86 1002.69 1003.57 1004.51 1005.48 1006.49 1007.51 1008.53 1009.52 1010.48 1011.37 1012.18 1012.90 1013.50 1013.97 1014.32 1014.55 1014.66 1014.68 1014.62 1014.51 1014.38 1014.22 1014.06 1013.90 1013.75 1013.60 1013.43 1013.26 1013.07 1012.88 1012.69 1012.50 1012.34 1012.22 1012.13 1012.09 1012.10 1012.14 1012.21 1012.31 1012.43 1012.58
1001.66 1002.46 1003.32 1004.24 1005.22 1006.25 1007.31 1008.36 1009.40 1010.38 1011.28 1012.08 1012.76 1013.31 1013.73 1014.01 1014.18 1014.25 1014.24 1014.17 1014.07 1013.94 1013.80 1013.65 1013.49 1013.33 1013.15 1012.96 1012.76 1012.55 1012.34 1012.15 1011.98 1011.85 1011.76 1011.71 1011.70 1011.72 1011.75 1011.81 1011.86 1011.93 1012.01
1001.53 1002.33 1003.19 1004.11 1005.09 1006.12 1007.19 1008.27 1009.31 1010.29 1011.18 1011.94 1012.57 1013.06 1013.40 1013.62 1013.74 1013.77 1013.74 1013.67 1013.59 1013.48 1013.37 1013.25 1013.11 1012.95 1012.76 1012.56 1012.35 1012.12 1011.91 1011.73 1011.59 1011.48 1011.43 1011.42 1011.44 1011.47 1011.51 1011.53 1011.55 1011.55 1011.56
1001.54 1002.36 1003.23 1004.14 1005.12 1006.15 1007.21 1008.27 1009.29 1010.24 1011.08 1011.79 1012.35 1012.76 1013.04 1013.20 1013.27 1013.27 1013.24 1013.18 1013.12 1013.06 1012.99 1012.90 1012.80 1012.66 1012.49 1012.30 1012.08 1011.86 1011.66 1011.48 1011.36 1011.28 1011.26 1011.27 1011.31 1011.35 1011.38 1011.38 1011.35 1011.29 1011.24
1001.76 1002.60 1003.47 1004.39 1005.35 1006.36 1007.39 1008.40 1009.37 1010.26 1011.03 1011.66 1012.14 1012.48 1012.69 1012.80 1012.83 1012.82 1012.79 1012.75 1012.73 1012.72 1012.70 1012.67 1012.61 1012.51 1012.37 1012.19 1011.99 1011.78 1011.57 1011.40 1011.28 1011.21 1011.19 1011.21 1011.25 1011.28 1011.29 1011.26 1011.19 1011.08 1010.97
1002.19 1003.06 1003.95 1004.86 1005.79 1006.76 1007.73 1008.68 1009.57 1010.37 1011.05 1011.60 1012.00 1012.26 1012.41 1012.47 1012.47 1012.46 1012.44 1012.44 1012.47 1012.51 1012.55 1012.58 1012.57 1012.52 1012.41 1012.25 1012.06 1011.84 1011.63 1011.45 1011.31 1011.21 1011.17 1011.16 1011.17 1011.17 1011.14 1011.07 1010.96 1010.82 1010.67
1002.84 1003.74 1004.62 1005.52 1006.42 1007.33 1008.23 1009.09 1009.88 1010.59 1011.17 1011.62 1011.94 1012.13 1012.23 1012.25 1012.24 1012.23 1012.24 1012.27 1012.35 1012.44 1012.54 1012.62 1012.67 1012.65 1012.57 1012.43 1012.23 1012.01 1011.77 1011.55 1011.35 1011.21 1011.10 1011.03 1010.98 1010.92 1010.84 1010.73 1010.58 1010.41 1010.23
1003.67 1004.58 1005.46 1006.32 1007.18 1008.02 1008.83 1009.59 1010.28 1010.88 1011.36 1011.72 1011.96 1012.10 1012.15 1012.15 1012.14 1012.14 1012.17 1012.24 1012.36 1012.50 1012.64 1012.77 1012.85 1012.86 1012.79 1012.65 1012.44 1012.18 1011.90 1011.61 1011.35 1011.12 1010.92 1010.76 1010.62 1010.48 1010.34 1010.17 1009.99 1009.79 1009.60
1004.61 1005.51 1006.38 1007.21 1008.00 1008.76 1009.48 1010.14 1010.72 1011.21 1011.60 1011.87 1012.05 1012.14 1012.17 1012.16 1012.15 1012.17 1012.22 1012.32 1012.46 1012.63 1012.80 1012.95 1013.04 1013.06 1013.00 1012.84 1012.60 1012.30 1011.96 1011.60 1011.24 1010.91 1010.61 1010.34 1010.09 1009.86 1009.64 1009.42 1009.19 1008.98 1008.79
Thickness
5793 5791 5787 5783 5779 5774 5769 5766 5762 5759 5755 5751 5748 5744 5741 5740 5738 5736 5732 5729 5726 5724 5722 5723 5719 5717 5717 5714 5713 5712 5711 5711 5711 5709 5709 5711 5713 5714 5714 5714 5715 5715 5714
5787 5784 5782 5779 5775 5771 5767 5764 5760 5757 5753 5751 5747 5743 5740 5738 5736 5733 5729 5726 5724 5722 5721 5718 5718 5716 5713 5711 5709 5707 5707 5707 5707 5705 5703 5704 5707 5709 5713 5712 5711 5712 5712
5783 5780 5778 5776 5774 5769 5766 5764 5760 5756 5752 5749 5745 5741 5736 5734 5732 5729 5727 5725 5722 5720 5719 5717 5716 5713 5712 5709 5705 5704 5701 5702 5703 5703 5701 5699 5700 5704 5707 5707 5708 5708 5708
5783 5781 5778 5774 5772 5770 5767 5762 5758 5753 5750 5746 5743 5739 5734 5731 5730 5728 5727 5723 5720 5718 5717 5715 5713 5711 5710 5706 5704 5703 5700 5698 5698 5699 5699 5698 5700 5696 5698 5702 5704 5703 5703
5783 5780 5778 5775 5772 5769 5766 5761 5756 5751 5748 5744 5741 5736 5733 5731 5729 5726 5723 5720 5719 5717 5715 5712 5710 5708 5707 5704 5702 5700 5697 5696 5696 5695 5695 5694 5693 5693 5691 5692 5695 5697 5699
5781 5778 5776 5773 5769 5767 5763 5759 5753 5748 5745 5741 5738 5734 5730 5728 5725 5721 5719 5717 5717 5715 5713 5711 5707 5705 5704 5701 5699 5697 5695 5694 5692 5691 5691 5691 5690 5690 5689 5687 5688 5690 5694
5775 5772 5770 5767 5764 5762 5759 5755 5750 5745 5742 5739 5736 5732 5728 5725 5721 5719 5717 5715 5715 5712 5710 5709 5705 5703 5700 5698 5696 5694 5693 5691 5688 5687 5687 5687 5688 5688 5687 5684 5685 5686 5689
5770 5767 5764 5761 5759 5757 5754 5751 5746 5742 5739 5736 5733 5730 5726 5723 5722 5718 5717 5715 5713 5711 5707 5704 5702 5699 5697 5695 5692 5691 5689 5687 5685 5685 5683 5683 5684 5684 5683 5681 5679 5678 5682
5763 5761 5759 5756 5754 5751 5749 5746 5742 5738 5736 5733 5729 5726 5722 5720 5718 5715 5712 5712 5709 5706 5703 5701 5698 5696 5693 5691 5688 5687 5685 5683 5681 5681 5679 5679 5680 5678 5678 5678 5676 5672 5671
5757 5755 5752 5749 5747 5746 5744 5742 5738 5735 5732 5729 5725 5722 5719 5716 5713 5711 5707 5706 5703 5701 5698 5696 5693 5691 5688 5686 5683 5682 5681 5678 5676 5675 5674 5673 5674 5673 5672 5672 5671 5670 5667
5750 5748 5746 5744 5742 5740 5738 5735 5732 5729 5726 5723 5719 5716 5713 5711 5708 5705 5703 5701 5698 5695 5693 5691 5689 5686 5684 5681 5678 5677 5675 5672 5671 5670 5669 5667 5667 5667 5667 5666 5665 5664 5663
5744 5742 5740 5738 5736 5733 5732 5729 5726 5723 5720 5717 5713 5710 5708 5705 5702 5700 5698 5695 5692 5690 5688 5686 5684 5682 5680 5677 5674 5672 5670 5667 5665 5664 5663 5662 5662 5660 5660 5660 5659 5658 5657
5736 5735 5733 5731 5728 5727 5725 5723 5720 5717 5715 5711 5708 5704 5702 5699 5696 5694 5692 5689 5687 5685 5683 5681 5678 5677 5675 5672 5670 5667 5665 5662 5661 5659 5657 5656 5655 5653 5654 5653 5653 5652 5652
5729 5728 5725 5723 5721 5719 5717 5716 5714 5712 5709 5706 5702 5698 5696 5693 5691 5689 5687 5684 5682 5680 5678 5676 5674 5672 5670 5668 5665 5663 5660 5657 5655 5654 5652 5651 5649 5648 5647 5647 5645 5645 5644
5721 5719 5717 5715 5713 5711 5709 5708 5706 5704 5701 5698 5695 5692 5690 5687 5685 5682 5681 5679 5677 5675 5674 5671 5669 5667 5665 5663 5661 5658 5657 5653 5650 5649 5648 5646 5644 5642 5640 5641 5640 5639 5638
5713 5712 5709 5707 5705 5703 5702 5700 5698 5695 5693 5691 5689 5686 5683 5681 5679 5676 5675 5673 5671 5670 5668 5666 5664 5662 5661 5657 5653 5651 5651 5649 5647 5645 5643 5642 5640 5636 5633 5632 5630 5629 5630
5704 5703 5701 5699 5697 5696 5695 5693 5691 5689 5686 5684 5683 5681 5679 5676 5674 5672 5670 5667 5666 5665 5663 5661 5659 5657 5654 5650 5647 5644 5644 5644 5643 5641 5638 5638 5637 5632 5631 5627 5624 5622 5620
5697 5695 5694 5692 5691 5690 5688 5687 5686 5683 5681 5679 5677 5675 5673 5671 5669 5666 5664 5663 5661 5659 5657 5655 5654 5652 5649 5644 5641 5638 5639 5640 5638 5636 5634 5631 5629 5627 5625 5624 5622 5620 5618
5690 5688 5687 5686 5684 5683 5682 5680 5678 5677 5676 5674 5672 5670 5667 5664 5662 5660 5658 5656 5654 5653 5652 5651 5650 5648 5644 5639 5635 5631 5635 5635 5633 5631 5629 5627 5624 5619 5615 5615 5615 5614 5613
5683 5681 5680 5678 5677 5676 5675 5673 5672 5670 5669 5668 5666 5664 5662 5659 5656 5654 5653 5651 5650 5649 5648 5648 5646 5643 5640 5634 5630 5626 5631 5630 5629 5627 5625 5620 5617 5612 5608 5608 5608 5607 5608
5675 5674 5673 5671 5670 5669 5668 5665 5665 5664 5664 5663 5660 5658 5656 5653 5651 5649 5648 5646 5646 5645 5643 5642 5641 5639 5635 5630 5624 5621 5624 5626 5624 5623 5621 5618 5610 5606 5602 5600 5601 5601 5600
5666 5666 5665 5664 5663 5662 5661 5659 5657 5657 5657 5655 5652 5650 5648 5647 5646 5643 5642 5641 5640 5638 5637 5636 5634 5634 5631 5626 5621 5617 5614 5614 5617 5616 5616 5613 5604 5599 5596 5594 5595 5593 5591
5658 5658 5658 5657 5656 5655 5654 5651 5650 5650 5648 5646 5644 5642 5641 5639 5638 5636 5635 5634 5633 5633 5632 5631 5629 5628 5627 5623 5616 5612 5610 5607 5608 5609 5606 5601 5597 5593 5592 5590 5589 5588 5590
5651 5651 5651 5650 5648 5648 5647 5645 5644 5642 5640 5638 5636 5635 5633 5632 5631 5630 5629 5628 5627 5625 5624 5623 5622 5621 5620 5618 5614 5611 5608 5603 5602 5601 5599 5593 5590 5588 5588 5588 5587 5587 5588
5644 5644 5643 5642 5641 5641 5639 5638 5636 5634 5632 5630 5628 5627 5627 5626 5623 5623 5621 5620 5619 5616 5613 5614 5614 5613 5612 5609 5603 5602 5603 5601 5599 5595 5594 5593 5592 5590 5589 5588 5588 5586 5585
5635 5635 5634 5634 5633 5633 5632 5630 5628 5626 5624 5623 5622 5622 5621 5619 5618 5616 5615 5611 5609 5606 5603 5602 5601 5604 5601 5597 5595 5593 5591 5589 5586 5586 5591 5591 5590 5589 5587 5586 5584 5583 5581